Voltar ao catálogo

CZ-6A DEB

AtivoSSO
NORAD 54504·DEBRIS·🇨🇳 China

Lançado Nov 11, 2022 de Taiyuan Satellite Launch Center

Loading…

Próximas Passagens (próximas 24 horas)

TLE

AtualizadoSource: Space-Track

Época: Sep 14, 2026, 11:41 UTC

1 54504U 22151JG  26257.48734066  .00000548  00000-0  30522-3 0  9991
2 54504  98.8394 264.5855 0040579  41.8000 318.6260 14.14651909197782

Acompanhe CZ-6A DEB em tempo real com AllMySat

Download on the App Store